Weather History for Kirksville, MO

Change the Weather History Date:

Friday, November 30, 2012

  Actual Average Record
Temperature  
Mean Temperature 47 °F 34 °F  
Max Temperature 59 °F 43 °F 69 °F (1933)
Min Temperature 34 °F 25 °F -10 °F (1964)
Degree Days  
Heating Degree Days 18 31  
Month to date heating degree days 691 735  
Since 1 July heating degree days 1270 1221  
Cooling Degree Days 0 0  
Month to date cooling degree days 2 0  
Year to date cooling degree days 1321 939  
Moisture  
Dew Point 35 °F    
Average Humidity 67    
Maximum Humidity 89    
Minimum Humidity 44    
Precipitation  
Precipitation 0.00 in 0.08 in 2.25 in (1934)
Month to date precipitation 1.73 2.72  
Year to date precipitation 26.42 37.56  
Sea Level Pressure  
Sea Level Pressure 30.06 in    
Wind  
Wind Speed 6 mph (SW)    
Max Wind Speed 13 mph    
Max Gust Speed 17 mph    
Visibility 10 miles    
Events      
T = Trace of Precipitation, MM = Missing Value Source: NWS Daily Summary

Daily Weather History Graph

Daily Weather History Graph

Search for Another Location

Airport:

Trip Planner

Search our weather history database for the weather conditions in past years. The results will help you decide how hot, cold, wet, or windy it might be!

Date:

Astronomy

Nov. 30, 2012 Rise Set
Actual Time 7:12 AM CST 4:45 PM CST
Civil Twilight 6:42 AM CST 5:15 PM CST
Nautical Twilight 6:08 AM CST 5:49 PM CST
Astronomical Twilight 5:36 AM CST 6:21 PM CST
Moon 6:40 PM CST (11/30) 8:44 AM CST (11/30)
Length of Visible Light 10h 32m
Length of Day
9h 32m
Waning Gibbous, 96% of the Moon is Illuminated
Nov 30
Waning Gibbous
Dec 6
Last Quarter
Dec 13
New
Dec 19
First Quarter
Dec 28
Full

Hourly Weather History & Observations

Time (CST) Temp. Windchill Dew Point Humidity Pressure Visibility Wind Dir Wind Speed Gust Speed Precip Events Conditions
12:55 AM 46.0 °F 40.6 °F 34.0 °F 63% 30.01 in 10.0 mi SSW 11.5 mph - N/A   Clear
1:55 AM 46.0 °F 41.0 °F 33.1 °F 61% 30.02 in 10.0 mi SW 10.4 mph - N/A   Clear
2:55 AM 44.1 °F 39.0 °F 33.1 °F 65% 30.04 in 10.0 mi SW 9.2 mph - N/A   Clear
3:55 AM 43.0 °F 38.8 °F 33.1 °F 68% 30.03 in 10.0 mi SW 6.9 mph - N/A   Clear
4:55 AM 43.0 °F 37.7 °F 33.1 °F 68% 30.03 in 10.0 mi SSW 9.2 mph - N/A   Clear
5:55 AM 43.0 °F 38.2 °F 33.1 °F 68% 30.04 in 10.0 mi SW 8.1 mph - N/A   Clear
6:55 AM 43.0 °F 37.7 °F 34.0 °F 71% 30.05 in 10.0 mi SW 9.2 mph - N/A   Clear
7:55 AM 43.0 °F 37.7 °F 34.0 °F 71% 30.06 in 10.0 mi SW 9.2 mph - N/A   Clear
8:55 AM 46.0 °F 41.9 °F 35.1 °F 66% 30.07 in 10.0 mi WSW 8.1 mph - N/A   Clear
9:55 AM 50.0 °F - 36.0 °F 59% 30.08 in 10.0 mi WSW 6.9 mph - N/A   Clear
10:55 AM 52.0 °F - 37.0 °F 57% 30.09 in 10.0 mi West 6.9 mph - N/A   Clear
11:55 AM 54.0 °F - 37.0 °F 53% 30.07 in 10.0 mi WSW 5.8 mph - N/A   Clear
12:55 PM 55.0 °F - 36.0 °F 49% 30.06 in 10.0 mi SW 6.9 mph - N/A   Clear
1:55 PM 57.9 °F - 37.0 °F 46% 30.06 in 10.0 mi West 6.9 mph - N/A   Clear
2:55 PM 59.0 °F - 37.0 °F 44% 30.06 in 10.0 mi Variable 4.6 mph - N/A   Clear
3:55 PM 57.0 °F - 37.0 °F 47% 30.07 in 10.0 mi WSW 3.5 mph - N/A   Clear
4:55 PM 50.0 °F - 36.0 °F 59% 30.07 in 10.0 mi Calm Calm - N/A   Clear
5:55 PM 46.0 °F - 36.0 °F 68% 30.09 in 10.0 mi Calm Calm - N/A   Clear
6:55 PM 39.0 °F - 34.0 °F 82% 30.09 in 10.0 mi Calm Calm - N/A   Clear
7:55 PM 39.0 °F - 34.0 °F 82% 30.10 in 10.0 mi Calm Calm - N/A   Clear
8:55 PM 35.1 °F - 32.0 °F 89% 30.09 in 10.0 mi Calm Calm - N/A   Clear
9:55 PM 37.9 °F 34.4 °F 33.1 °F 83% 30.08 in 10.0 mi ESE 4.6 mph - N/A   Clear
10:55 PM 37.9 °F 35.5 °F 34.0 °F 86% 30.07 in 10.0 mi SE 3.5 mph - N/A   Clear
11:55 PM 36.0 °F 33.3 °F 33.1 °F 89% 30.07 in 9.0 mi ESE 3.5 mph - N/A   Clear